FW8576 Weather Reports


time (UTC)temp
F
wind
direction
speed
knots
gust
knots
rain 1hr
in
rain 24hr
in
rain mn
in
humidity
%
barometer
mb
20260906093407 0 0.0 0.0 0.00 0.00 0.00 1015.4
20260906092906 0 0.0 0.0 0.00 0.00 0.00 1015.5
20260906092401 0 0.0 0.0 0.00 0.00 0.00 1015.5
20260906091856 0 0.0 0.0 0.00 0.00 0.00 1015.7
20260906091352 0 0.0 0.0 0.00 0.00 0.00 1015.4
20260906090849 0 0.0 0.0 0.00 0.00 0.00 1015.7
20260906090348 0 0.0 0.0 0.00 0.00 0.00 1015.4
20260906085842 0 0.0 0.0 0.00 0.00 0.00 1015.2
20260906085342 0 0.0 0.0 0.00 0.00 0.00 1015.3
20260906084837 0 0.0 0.0 0.00 0.00 0.00 1015.2
20260906084337 0 0.0 0.0 0.00 0.00 0.00 1015.0
20260906083831 0 0.0 0.0 0.00 0.00 0.00 1015.2
20260906083326 0 0.0 0.0 0.00 0.00 0.00 1014.8
20260906082821 0 0.0 0.0 0.00 0.00 0.00 1014.8
20260906082316 0 0.0 0.0 0.00 0.00 0.00 1015.1
20260906081812 0 0.0 0.0 0.00 0.00 0.00 1015.1
20260906081307 0 0.0 0.0 0.00 0.00 0.00 1015.0
20260906080803 0 0.0 0.0 0.00 0.00 0.00 1015.0
20260906080259 0 0.0 0.0 0.00 0.00 0.00 1015.1
20260906075758 0 0.0 0.0 0.00 0.00 0.00 1015.1
20260906075253 0 0.0 0.0 0.00 0.00 0.00 1014.9
20260906074749 0 0.0 0.0 0.00 0.00 0.00 1015.0
20260906074248 0 0.0 0.0 0.00 0.00 0.00 1014.8
20260906073747 0 0.0 0.0 0.00 0.00 0.00 1015.1
20260906073242 0 0.0 0.0 0.00 0.00 0.00 1015.0
20260906072738 0 0.0 0.0 0.00 0.00 0.00 1015.1
20260906072234 0 0.0 0.0 0.00 0.00 0.00 1015.2
20260906071729 0 0.0 0.0 0.00 0.00 0.00 1015.0
20260906071224 0 0.0 0.0 0.00 0.00 0.00 1015.1
20260906070720 0 0.0 0.0 0.00 0.00 0.00 1015.3
20260906070215 0 0.0 0.0 0.00 0.00 0.00 1015.0
20260906065710 0 0.0 0.0 0.00 0.00 0.00 1015.2
20260906065205 0 0.0 0.0 0.00 0.00 0.00 1015.0
20260906064701 0 0.0 0.0 0.00 0.00 0.00 1015.1
20260906064156 0 0.0 0.0 0.00 0.00 0.00 1015.3
20260906063651 0 0.0 0.0 0.00 0.00 0.00 1015.1
20260906063147 0 0.0 0.0 0.00 0.00 0.00 1015.4
20260906062642 0 0.0 0.0 0.00 0.00 0.00 1015.4
20260906062140 0 0.0 0.0 0.00 0.00 0.00 1015.5
20260906061637 0 0.0 0.0 0.00 0.00 0.00 1015.6
20260906061137 0 0.0 0.0 0.00 0.00 0.00 1015.6
20260906060634 0 0.0 0.0 0.00 0.00 0.00 1015.7
20260906060130 0 0.0 0.0 0.00 0.00 0.00 1015.6
20260906055626 0 0.0 0.0 0.02 0.00 0.00 1015.7
20260906055121 0 0.0 0.0 0.02 0.00 0.00 1015.6
20260906054616 0 0.0 0.0 0.00 0.00 0.00 1015.9
20260906054111 0 0.0 0.0 0.00 0.00 0.00 1015.9
20260906053608 0 0.0 0.0 0.00 0.00 0.00 1015.8
20260906053103 0 0.0 0.0 0.00 0.00 0.00 1016.0
20260906052558 0 0.0 0.0 0.00 0.00 0.00 1015.9
20260906052055 0 0.0 0.0 0.00 0.00 0.00 1015.9
20260906051550 0 0.0 0.0 0.00 0.00 0.00 1015.6
20260906051046 0 0.0 0.0 0.00 0.00 0.00 1015.8
20260906050541 0 0.0 0.0 0.00 0.00 0.00 1015.8
20260906050036 0 0.0 0.0 0.00 0.00 0.00 1016.1
20260906045534 0 0.0 0.0 0.00 0.00 0.00 1015.9
20260906045030 0 0.0 0.0 0.00 0.00 0.00 1016.0
20260906044525 0 0.0 0.0 0.00 0.00 0.00 1016.0
20260906044015 0 0.0 0.0 0.00 0.00 0.00 1015.8
20260906043511 0 0.0 0.0 0.00 0.00 0.00 1015.8
20260906043007 0 0.0 0.0 0.00 0.00 0.00 1015.8
20260906042505 0 0.0 0.0 0.00 0.00 0.00 1016.0
20260906042005 0 0.0 0.0 0.00 0.00 0.00 1015.8
20260906041502 0 0.0 0.0 0.00 0.00 0.00 1015.9
20260906041001 0 0.0 0.0 0.00 0.00 0.00 1016.1
20260906040456 0 0.0 0.0 0.00 0.00 0.00 1016.2
20260906035951 0 0.0 0.0 0.00 0.04 0.04 1016.1
20260906035447 0 0.0 0.0 0.00 0.04 0.04 1016.1
20260906034942 0 0.0 0.0 0.00 0.04 0.04 1016.2
20260906034437 0 0.0 0.0 0.00 0.04 0.04 1016.1
20260906033933 0 0.0 0.0 0.00 0.04 0.04 1016.5
20260906033432 0 0.0 0.0 0.00 0.04 0.04 1016.3
20260906032928 0 0.0 0.0 0.00 0.04 0.04 1016.6
20260906032425 0 0.0 0.0 0.00 0.04 0.04 1016.4
20260906031919 0 0.0 0.0 0.00 0.04 0.04 1016.4
20260906031414 0 0.0 0.0 0.02 0.04 0.04 1016.4
20260906030909 0 0.0 0.0 0.19 0.04 0.04 1016.4
20260906030404 0 0.0 0.0 0.21 0.04 0.04 1016.4
20260906025858 0 0.0 0.0 0.02 0.00 0.00 1016.5
20260906025353 0 0.0 0.0 0.00 0.00 0.00 1016.8
20260906024852 0 0.0 0.0 0.00 0.00 0.00 1016.5
20260906024351 0 0.0 0.0 0.00 0.00 0.00 1016.7
20260906023846 0 0.0 0.0 0.00 0.00 0.00 1016.4
20260906023343 0 0.0 0.0 0.00 0.00 0.00 1016.4
20260906022837 0 0.0 0.0 0.00 0.00 0.00 1016.4
20260906022338 0 0.0 0.0 0.00 0.00 0.00 1016.4
20260906021833 0 0.0 0.0 0.00 0.00 0.00 1016.7
20260906021332 0 0.0 0.0 0.00 0.00 0.00 1016.5
20260906020828 0 0.0 0.0 0.00 0.00 0.00 1016.7
20260906020327 0 0.0 0.0 0.00 0.00 0.00 1016.4
20260906015822 0 0.0 0.0 0.00 0.00 0.00 1016.2
20260906015320 0 0.0 0.0 0.00 0.00 0.00 1016.3
20260906014815 0 0.0 0.0 0.00 0.00 0.00 1016.2
20260906014310 0 0.0 0.0 0.00 0.00 0.00 1016.2
20260906013806 0 0.0 0.0 0.00 0.00 0.00 1016.0
20260906013301 0 0.0 0.0 0.00 0.00 0.00 1016.0
20260906012756 0 0.0 0.0 0.00 0.00 0.00 1016.1
20260906012251 0 0.0 0.0 0.00 0.00 0.00 1016.1
20260906011746 0 0.0 0.0 0.00 0.00 0.00 1015.9
20260906011246 0 0.0 0.0 0.00 0.00 0.00 1015.8
20260906010742 0 0.0 0.0 0.00 0.00 0.00 1015.7
20260906010238 0 0.0 0.0 0.00 0.00 0.00 1015.6
20260906005733 0 0.0 0.0 0.00 0.00 0.00 1015.5
20260906005232 0 0.0 0.0 0.00 0.00 0.00 1015.4
20260906004731 0 0.0 0.0 0.00 0.00 0.00 1015.5
20260906004221 0 0.0 0.0 0.00 0.00 0.00 1015.7
20260906003715 0 0.0 0.0 0.00 0.00 0.00 1015.8
20260906003211 0 0.0 0.0 0.00 0.00 0.00 1015.7
20260906002711 0 0.0 0.0 0.00 0.00 0.00 1015.4
20260906002206 0 0.0 0.0 0.00 0.00 0.00 1015.6
20260906001702 0 0.0 0.0 0.00 0.00 0.00 1015.5
20260906001202 0 0.0 0.0 0.00 0.00 0.00 1015.4
20260906000657 0 0.0 0.0 0.00 0.00 0.00 1015.4
20260906000152 0 0.0 0.0 0.00 0.00 0.00 1015.3
20260905235651 0 0.0 0.0 0.00 0.00 0.00 1015.4
20260905235146 0 0.0 0.0 0.00 0.00 0.00 1015.3
20260905234641 0 0.0 0.0 0.00 0.00 0.00 1015.1
20260905234137 0 0.0 0.0 0.00 0.00 0.00 1015.2
20260905233632 0 0.0 0.0 0.00 0.00 0.00 1015.2
20260905233126 0 0.0 0.0 0.00 0.00 0.00 1015.3
20260905232622 0 0.0 0.0 0.00 0.00 0.00 1015.2
20260905232117 0 0.0 0.0 0.00 0.00 0.00 1014.8
20260905231617 0 0.0 0.0 0.00 0.00 0.00 1014.9
20260905231113 0 0.0 0.0 0.00 0.00 0.00 1015.2
20260905230609 0 0.0 0.0 0.00 0.00 0.00 1015.2
20260905230107 0 0.0 0.0 0.00 0.00 0.00 1014.9
20260905225607 0 0.0 0.0 0.00 0.00 0.00 1015.0
20260905225102 0 0.0 0.0 0.00 0.00 0.00 1015.2
20260905224602 0 0.0 0.0 0.00 0.00 0.00 1014.7
20260905224101 0 0.0 0.0 0.00 0.00 0.00 1014.7
20260905223559 0 0.0 0.0 0.00 0.00 0.00 1014.8
20260905223054 0 0.0 0.0 0.00 0.00 0.00 1014.8
20260905222554 0 0.0 0.0 0.00 0.00 0.00 1014.8
20260905222050 0 0.0 0.0 0.00 0.00 0.00 1014.5
20260905221546 0 0.0 0.0 0.00 0.00 0.00 1014.7
20260905221042 0 0.0 0.0 0.00 0.00 0.00 1014.6
20260905220537 0 0.0 0.0 0.00 0.00 0.00 1014.8
20260905220033 0 0.0 0.0 0.00 0.00 0.00 1014.7
20260905215532 0 0.0 0.0 0.00 0.00 0.00 1014.3
20260905215029 0 0.0 0.0 0.00 0.00 0.00 1013.9
20260905214525 0 0.0 0.0 0.00 0.00 0.00 1013.8
20260905214019 0 0.0 0.0 0.00 0.00 0.00 1013.8
20260905213515 0 0.0 0.0 0.00 0.00 0.00 1014.1
20260905213010 0 0.0 0.0 0.00 0.00 0.00 1013.8
20260905212505 0 0.0 0.0 0.00 0.00 0.00 1014.0
20260905212004 0 0.0 0.0 0.00 0.00 0.00 1014.0
20260905211500 0 0.0 0.0 0.00 0.00 0.00 1013.9
20260905210955 0 0.0 0.0 0.00 0.00 0.00 1014.3
20260905210451 0 0.0 0.0 0.00 0.00 0.00 1014.5
20260905205950 0 0.0 0.0 0.00 0.00 0.00 1014.3
20260905205445 0 0.0 0.0 0.00 0.00 0.00 1014.4
20260905204943 0 0.0 0.0 0.00 0.00 0.00 1014.5
20260905204440 0 0.0 0.0 0.00 0.00 0.00 1014.2
20260905203939 0 0.0 0.0 0.00 0.00 0.00 1014.3
20260905203434 0 0.0 0.0 0.00 0.00 0.00 1014.2
20260905202930 0 0.0 0.0 0.00 0.00 0.00 1014.0
20260905202425 0 0.0 0.0 0.00 0.00 0.00 1014.1
20260905201920 0 0.0 0.0 0.00 0.00 0.00 1014.3
20260905201416 0 0.0 0.0 0.00 0.00 0.00 1014.4
20260905200915 0 0.0 0.0 0.00 0.00 0.00 1014.4
20260905200411 0 0.0 0.0 0.00 0.00 0.00 1014.4
20260905195909 0 0.0 0.0 0.00 0.00 0.00 1014.5
20260905195405 0 0.0 0.0 0.00 0.00 0.00 1014.6
20260905194900 0 0.0 0.0 0.00 0.00 0.00 1014.7
20260905194400 0 0.0 0.0 0.00 0.00 0.00 1014.8
20260905193900 0 0.0 0.0 0.00 0.00 0.00 1014.6
20260905193355 0 0.0 0.0 0.00 0.00 0.00 1014.7
20260905192850 0 0.0 0.0 0.00 0.00 0.00 1014.8
20260905192345 0 0.0 0.0 0.00 0.00 0.00 1015.1
20260905191845 0 0.0 0.0 0.00 0.00 0.00 1015.1
20260905191344 0 0.0 0.0 0.00 0.00 0.00 1014.9
20260905190843 0 0.0 0.0 0.00 0.00 0.00 1015.1
20260905190336 0 0.0 0.0 0.00 0.00 0.00 1015.0
20260905185835 0 0.0 0.0 0.00 0.00 0.00 1015.1
20260905185331 0 0.0 0.0 0.00 0.00 0.00 1015.2
20260905184830 0 0.0 0.0 0.00 0.00 0.00 1015.2
20260905184329 0 0.0 0.0 0.00 0.00 0.00 1015.5
20260905183828 0 0.0 0.0 0.00 0.00 0.00 1015.7
20260905183323 0 0.0 0.0 0.00 0.00 0.00 1015.8
20260905182818 0 0.0 0.0 0.00 0.00 0.00 1015.7
20260905182318 0 0.0 0.0 0.00 0.00 0.00 1015.7
20260905181813 0 0.0 0.0 0.00 0.00 0.00 1016.0
20260905181313 0 0.0 0.0 0.00 0.00 0.00 1015.9
20260905180812 0 0.0 0.0 0.00 0.00 0.00 1016.0
20260905180307 0 0.0 0.0 0.00 0.00 0.00 1016.2
20260905175802 0 0.0 0.0 0.00 0.00 0.00 1016.3
20260905175256 0 0.0 0.0 0.00 0.00 0.00 1016.2
20260905174752 0 0.0 0.0 0.00 0.00 0.00 1016.3
20260905174248 0 0.0 0.0 0.00 0.00 0.00 1016.5
20260905173743 0 0.0 0.0 0.00 0.00 0.00 1016.3
20260905173239 0 0.0 0.0 0.00 0.00 0.00 1016.5
20260905172733 0 0.0 0.0 0.00 0.00 0.00 1016.6
20260905172232 0 0.0 0.0 0.00 0.00 0.00 1016.5
20260905171729 0 0.0 0.0 0.00 0.00 0.00 1016.7
20260905171225 0 0.0 0.0 0.00 0.00 0.00 1016.7
20260905170721 0 0.0 0.0 0.00 0.00 0.00 1016.5
20260905170221 0 0.0 0.0 0.00 0.00 0.00 1016.7
20260905165715 0 0.0 0.0 0.00 0.00 0.00 1017.0
20260905165210 0 0.0 0.0 0.00 0.00 0.00 1017.0
20260905164705 0 0.0 0.0 0.00 0.00 0.00 1017.3
20260905164205 0 0.0 0.0 0.00 0.00 0.00 1017.1
20260905163701 0 0.0 0.0 0.00 0.00 0.00 1017.2
20260905163157 0 0.0 0.0 0.00 0.00 0.00 1017.5
20260905162653 0 0.0 0.0 0.00 0.00 0.00 1017.5
20260905162152 0 0.0 0.0 0.00 0.00 0.00 1017.6
20260905161647 0 0.0 0.0 0.00 0.00 0.00 1017.8
20260905161144 0 0.0 0.0 0.00 0.00 0.00 1017.8
20260905160639 0 0.0 0.0 0.00 0.00 0.00 1018.0
20260905160138 0 0.0 0.0 0.00 0.00 0.00 1018.0
20260905155633 0 0.0 0.0 0.00 0.00 0.00 1018.3
20260905155132 0 0.0 0.0 0.00 0.00 0.00 1018.0
20260905154632 0 0.0 0.0 0.00 0.00 0.00 1017.9
20260905154128 0 0.0 0.0 0.00 0.00 0.00 1018.0
20260905153623 0 0.0 0.0 0.00 0.00 0.00 1018.2
20260905153119 0 0.0 0.0 0.00 0.00 0.00 1018.3
20260905152613 0 0.0 0.0 0.00 0.00 0.00 1017.9
20260905152108 0 0.0 0.0 0.00 0.00 0.00 1018.0
20260905151603 0 0.0 0.0 0.00 0.00 0.00 1017.9
20260905151058 0 0.0 0.0 0.00 0.00 0.00 1018.1
20260905150553 0 0.0 0.0 0.00 0.00 0.00 1018.2
20260905150051 0 0.0 0.0 0.00 0.00 0.00 1018.4
20260905145545 0 0.0 0.0 0.00 0.00 0.00 1018.5
20260905145044 0 0.0 0.0 0.00 0.00 0.00 1018.5
20260905144539 0 0.0 0.0 0.00 0.00 0.00 1018.4
20260905144038 0 0.0 0.0 0.00 0.00 0.00 1018.5
20260905143538 0 0.0 0.0 0.00 0.00 0.00 1018.7
20260905143033 0 0.0 0.0 0.00 0.00 0.00 1018.7
20260905142531 0 0.0 0.0 0.00 0.00 0.00 1018.6
20260905142027 0 0.0 0.0 0.00 0.00 0.00 1018.6
20260905141521 0 0.0 0.0 0.00 0.00 0.00 1018.7
20260905141018 0 0.0 0.0 0.00 0.00 0.00 1018.7
20260905140513 0 0.0 0.0 0.00 0.00 0.00 1018.7
20260905140011 0 0.0 0.0 0.00 0.00 0.00 1018.9
20260905135508 0 0.0 0.0 0.00 0.00 0.00 1018.7
20260905135007 0 0.0 0.0 0.00 0.00 0.00 1018.9
20260905134502 0 0.0 0.0 0.00 0.00 0.00 1018.7
20260905134000 0 0.0 0.0 0.00 0.00 0.00 1018.9
20260905133450 0 0.0 0.0 0.00 0.00 0.00 1018.8
20260905132949 0 0.0 0.0 0.00 0.00 0.00 1018.8
20260905132445 0 0.0 0.0 0.00 0.00 0.00 1019.0
20260905131939 0 0.0 0.0 0.00 0.00 0.00 1018.8
20260905131435 0 0.0 0.0 0.00 0.00 0.00 1019.0
20260905130930 0 0.0 0.0 0.00 0.00 0.00 1018.9
20260905130430 0 0.0 0.0 0.00 0.00 0.00 1019.0
20260905125929 0 0.0 0.0 0.00 0.00 0.00 1019.1
20260905125424 0 0.0 0.0 0.00 0.00 0.00 1018.9
20260905124920 0 0.0 0.0 0.00 0.00 0.00 1018.9
20260905124416 0 0.0 0.0 0.00 0.00 0.00 1019.2
20260905123916 0 0.0 0.0 0.00 0.00 0.00 1019.0
20260905123413 0 0.0 0.0 0.00 0.00 0.00 1019.1
20260905122908 0 0.0 0.0 0.00 0.00 0.00 1019.0
20260905122407 0 0.0 0.0 0.00 0.00 0.00 1018.6
20260905121903 0 0.0 0.0 0.00 0.00 0.00 1018.7
20260905121359 0 0.0 0.0 0.00 0.00 0.00 1019.0
20260905120857 0 0.0 0.0 0.00 0.00 0.00 1018.6
20260905120352 0 0.0 0.0 0.00 0.00 0.00 1018.8
20260905115847 0 0.0 0.0 0.00 0.00 0.00 1018.8
20260905115346 0 0.0 0.0 0.00 0.00 0.00 1018.4
20260905114841 0 0.0 0.0 0.00 0.00 0.00 1018.7
20260905114340 0 0.0 0.0 0.00 0.00 0.00 1018.7
20260905113840 0 0.0 0.0 0.00 0.00 0.00 1018.7
20260905113336 0 0.0 0.0 0.00 0.00 0.00 1018.6
20260905112831 0 0.0 0.0 0.00 0.00 0.00 1018.7
20260905112325 0 0.0 0.0 0.00 0.00 0.00 1018.6
20260905111821 0 0.0 0.0 0.00 0.00 0.00 1018.5
20260905111315 0 0.0 0.0 0.00 0.00 0.00 1018.5
20260905110814 0 0.0 0.0 0.00 0.00 0.00 1018.3
20260905110308 0 0.0 0.0 0.00 0.00 0.00 1018.4
20260905105804 0 0.0 0.0 0.00 0.00 0.00 1018.4
20260905105306 0 0.0 0.0 0.00 0.00 0.00 1018.2
20260905104757 0 0.0 0.0 0.00 0.00 0.00 1018.2
20260905104254 0 0.0 0.0 0.00 0.00 0.00 1018.0
20260905103753 0 0.0 0.0 0.00 0.00 0.00 1018.0
20260905103249 0 0.0 0.0 0.00 0.00 0.00 1017.9
20260905102744 0 0.0 0.0 0.00 0.00 0.00 1018.0
20260905102241 0 0.0 0.0 0.00 0.00 0.00 1017.9
20260905101740 0 0.0 0.0 0.00 0.00 0.00 1018.0
20260905101239 0 0.0 0.0 0.00 0.00 0.00 1017.7
20260905100734 0 0.0 0.0 0.00 0.00 0.00 1018.0
20260905100230 0 0.0 0.0 0.00 0.00 0.00 1018.0
20260905095730 0 0.0 0.0 0.00 0.00 0.00 1017.8
20260905095229 0 0.0 0.0 0.00 0.00 0.00 1018.1
20260905094724 0 0.0 0.0 0.00 0.00 0.00 1017.9
20260905094219 0 0.0 0.0 0.00 0.00 0.00 1017.7
20260905093713 0 0.0 0.0 0.00 0.00 0.00 1017.9